Weather History for Joliet, IL

Change the Weather History Date:

Sunday, November 11, 2012

  Actual Average (KLOT) Record (KLOT)
Temperature  
Mean Temperature 53 °F 43 °F  
Max Temperature 68 °F 51 °F 69 °F (2012)
Min Temperature 37 °F 35 °F 15 °F (1995)
Degree Days  
Heating Degree Days 12 22  
Month to date heating degree days 219  
Since 1 July heating degree days 706  
Cooling Degree Days 0 0  
Month to date cooling degree days 0  
Year to date cooling degree days 862  
Growing Degree Days 3 (Base 50)    
Moisture  
Dew Point 49 °F    
Average Humidity 73    
Maximum Humidity 98    
Minimum Humidity 56    
Precipitation  
Precipitation 0.38 in 0.10 in 0.49 in (2012)
Month to date precipitation 1.27  
Year to date precipitation 35.63  
Snow  
Snow 0.00 in 0.00 in 1.10 in (1995)
Month to date snowfall 0.1  
Since 1 July snowfall 0.1  
Since 1 September snowfall 0.1  
Snow Depth -    
Sea Level Pressure  
Sea Level Pressure 29.88 in    
Wind  
Wind Speed 16 mph (South)    
Max Wind Speed 31 mph    
Max Gust Speed 45 mph    
Visibility 8 miles    
Events Rain    
T = Trace of Precipitation, MM = Missing Value Source: NWS Daily Summary

Daily Weather History Graph

Daily Weather History Graph

Search for Another Location

Airport:

Trip Planner

Search our weather history database for the weather conditions in past years. The results will help you decide how hot, cold, wet, or windy it might be!

Date:

Astronomy

Nov. 11, 2012 Rise Set
Actual Time 6:37 AM CST 4:35 PM CST
Civil Twilight 6:07 AM CST 5:05 PM CST
Nautical Twilight 5:34 AM CST 5:38 PM CST
Astronomical Twilight 5:01 AM CST 6:11 PM CST
Moon 3:49 AM CST (11/11) 3:00 PM CST (11/11)
Length of Visible Light 10h 57m
Length of Day
9h 58m
Waning Crescent, 7% of the Moon is Illuminated
Nov 11
Waning Crescent
Nov 13
New
Nov 20
First Quarter
Nov 28
Full
Dec 6
Last Quarter

Hourly Weather History & Observations

Time (CST) Temp. Windchill Dew Point Humidity Pressure Visibility Wind Dir Wind Speed Gust Speed Precip Events Conditions
12:15 AM 60.4 °F - 47.3 °F 62% 29.92 in 10.0 mi South 16.1 mph 20.7 mph N/A   Clear
12:35 AM 60.3 °F - 46.9 °F 61% 29.92 in 10.0 mi SSE 18.4 mph 24.2 mph N/A   Clear
12:55 AM 59.9 °F - 46.9 °F 62% 29.92 in 10.0 mi South 15.0 mph 26.5 mph N/A   Clear
1:15 AM 59.9 °F - 47.1 °F 63% 29.93 in 10.0 mi South 12.7 mph 20.7 mph N/A   Clear
1:35 AM 60.1 °F - 46.9 °F 62% 29.93 in 10.0 mi South 15.0 mph 26.5 mph N/A   Clear
1:55 AM 60.1 °F - 46.8 °F 61% 29.94 in 10.0 mi South 16.1 mph 21.9 mph N/A   Clear
2:15 AM 59.9 °F - 46.6 °F 61% 29.94 in 10.0 mi South 15.0 mph 24.2 mph N/A   Clear
2:35 AM 59.9 °F - 46.6 °F 61% 29.94 in 10.0 mi South 13.8 mph 24.2 mph N/A   Clear
2:55 AM 59.4 °F - 46.8 °F 63% 29.94 in 10.0 mi South 12.7 mph 23.0 mph N/A   Clear
3:15 AM 59.5 °F - 46.9 °F 63% 29.94 in 10.0 mi South 16.1 mph 23.0 mph N/A   Clear
3:35 AM 59.5 °F - 47.3 °F 64% 29.95 in 10.0 mi South 12.7 mph 23.0 mph N/A   Clear
3:55 AM 59.5 °F - 47.3 °F 64% 29.95 in 10.0 mi South 16.1 mph 21.9 mph N/A   Clear
4:15 AM 59.9 °F - 47.8 °F 64% 29.96 in 10.0 mi South 16.1 mph 21.9 mph N/A   Clear
4:35 AM 59.4 °F - 47.8 °F 66% 29.96 in 10.0 mi SSE 12.7 mph 20.7 mph N/A   Clear
4:55 AM 59.2 °F - 48.0 °F 66% 29.95 in 10.0 mi South 15.0 mph 23.0 mph N/A   Clear
5:15 AM 58.6 °F - 47.5 °F 66% 29.94 in 10.0 mi SSE 16.1 mph 20.7 mph N/A   Clear
5:35 AM 57.7 °F - 47.3 °F 68% 29.94 in 10.0 mi SE 10.4 mph 24.2 mph N/A   Clear
5:55 AM 55.4 °F - 46.4 °F 72% 29.92 in 10.0 mi SE 13.8 mph 23.0 mph N/A   Clear
6:15 AM 55.6 °F - 46.6 °F 72% 29.92 in 10.0 mi SSE 15.0 mph 21.9 mph N/A   Clear
6:35 AM 55.4 °F - 46.4 °F 72% 29.92 in 10.0 mi SSE 11.5 mph 19.6 mph N/A   Clear
6:55 AM 55.4 °F - 46.8 °F 73% 29.93 in 10.0 mi SSE 15.0 mph 20.7 mph N/A   Clear
7:15 AM 56.7 °F - 47.3 °F 71% 29.92 in 10.0 mi SSE 13.8 mph 19.6 mph N/A   Mostly Cloudy
7:35 AM 57.2 °F - 48.2 °F 72% 29.92 in 10.0 mi SSE 13.8 mph 26.5 mph N/A   Overcast
7:55 AM 57.4 °F - 47.8 °F 70% 29.92 in 10.0 mi SSE 12.7 mph 24.2 mph N/A   Mostly Cloudy
8:15 AM 58.5 °F - 48.2 °F 69% 29.91 in 10.0 mi SSE 21.9 mph 28.8 mph N/A   Mostly Cloudy
8:35 AM 60.8 °F - 48.2 °F 63% 29.90 in 10.0 mi SSE 20.7 mph 28.8 mph N/A   Mostly Cloudy
8:55 AM 60.6 °F - 49.1 °F 66% 29.89 in 10.0 mi South 24.2 mph 34.5 mph N/A   Scattered Clouds
9:15 AM 61.7 °F - 49.5 °F 64% 29.89 in 10.0 mi South 21.9 mph 34.5 mph N/A   Scattered Clouds
9:35 AM 62.4 °F - 50.0 °F 64% 29.88 in 10.0 mi SSE 23.0 mph 33.4 mph N/A   Scattered Clouds
9:55 AM 63.1 °F - 50.4 °F 63% 29.88 in 10.0 mi SSE 18.4 mph 31.1 mph N/A   Scattered Clouds
10:15 AM 63.5 °F - 50.9 °F 63% 29.87 in 10.0 mi South 24.2 mph 35.7 mph N/A   Mostly Cloudy
10:35 AM 64.4 °F - 51.3 °F 62% 29.86 in 10.0 mi South 27.6 mph 41.4 mph N/A   Mostly Cloudy
10:55 AM 64.6 °F - 51.4 °F 62% 29.86 in 10.0 mi South 19.6 mph 35.7 mph N/A   Scattered Clouds
11:15 AM 65.8 °F - 51.8 °F 60% 29.84 in 10.0 mi South 23.0 mph 33.4 mph N/A   Scattered Clouds
11:35 AM 65.7 °F - 51.8 °F 61% 29.82 in 10.0 mi SSE 24.2 mph 35.7 mph N/A   Clear
11:55 AM 66.9 °F - 51.4 °F 57% 29.81 in 10.0 mi South 25.3 mph 35.7 mph N/A   Clear
12:15 PM 66.6 °F - 51.3 °F 58% 29.80 in 10.0 mi South 19.6 mph 33.4 mph N/A   Clear
12:35 PM 67.1 °F - 51.8 °F 58% 29.80 in 10.0 mi South 26.5 mph 43.7 mph N/A   Scattered Clouds
12:55 PM 66.9 °F - 51.8 °F 58% 29.79 in 10.0 mi SSE 25.3 mph 39.1 mph N/A   Mostly Cloudy
1:15 PM 67.8 °F - 52.2 °F 57% 29.78 in 10.0 mi South 26.5 mph 36.8 mph N/A   Mostly Cloudy
1:35 PM 68.4 °F - 52.2 °F 56% 29.76 in 10.0 mi South 23.0 mph 36.8 mph N/A   Scattered Clouds
1:55 PM 68.2 °F - 51.8 °F 56% 29.76 in 10.0 mi South 26.5 mph 43.7 mph N/A   Scattered Clouds
2:15 PM 67.1 °F - 51.6 °F 57% 29.75 in 10.0 mi South 26.5 mph 38.0 mph N/A   Mostly Cloudy
2:35 PM 67.5 °F - 51.8 °F 57% 29.76 in 10.0 mi South 24.2 mph 40.3 mph N/A   Overcast
2:55 PM 66.6 °F - 51.6 °F 59% 29.76 in 10.0 mi SSE 23.0 mph 35.7 mph N/A   Overcast
3:15 PM 66.4 °F - 51.8 °F 59% 29.76 in 10.0 mi South 27.6 mph 35.7 mph N/A   Overcast
3:35 PM 66.2 °F - 51.8 °F 60% 29.75 in 10.0 mi SSE 27.6 mph 38.0 mph N/A   Overcast
3:55 PM 66.2 °F - 51.8 °F 60% 29.75 in 10.0 mi SSE 24.2 mph 35.7 mph N/A   Overcast
4:15 PM 65.3 °F - 52.5 °F 63% 29.77 in 10.0 mi South 31.1 mph 44.9 mph N/A Rain Light Rain
4:35 PM 59.5 °F - 55.4 °F 86% 29.78 in 5.0 mi SSE 16.1 mph 29.9 mph 0.01 in Rain Light Rain
4:55 PM 58.8 °F - 55.0 °F 87% 29.83 in 3.0 mi SW 16.1 mph 24.2 mph 0.05 in Rain Heavy Rain
5:15 PM 53.4 °F - 51.6 °F 94% 29.85 in 3.0 mi WSW 10.4 mph 19.6 mph 0.02 in Rain Light Rain
5:35 PM 52.9 °F - 51.4 °F 95% 29.86 in 3.0 mi West 8.1 mph - 0.03 in   Heavy Drizzle
5:55 PM 52.7 °F - 51.3 °F 95% 29.87 in 2.5 mi SSW 6.9 mph - 0.05 in   Heavy Drizzle
6:15 PM 52.7 °F - 51.3 °F 95% 29.87 in 2.5 mi SSW 3.5 mph - 0.01 in   Heavy Drizzle
6:35 PM 52.3 °F - 51.4 °F 97% 29.88 in 2.5 mi South 5.8 mph - 0.03 in Rain Heavy Rain
6:55 PM 52.0 °F - 51.1 °F 97% 29.86 in 2.5 mi Calm Calm - 0.06 in Rain Rain
7:15 PM 51.8 °F - 50.7 °F 96% 29.86 in 5.0 mi South 4.6 mph - 0.01 in Rain Light Rain
7:35 PM 51.4 °F - 50.9 °F 98% 29.86 in 7.0 mi SSE 4.6 mph - 0.02 in   Drizzle
7:55 PM 51.4 °F - 50.9 °F 98% 29.86 in 5.0 mi SSE 5.8 mph - 0.03 in Rain Light Rain
8:15 PM 51.3 °F - 50.4 °F 97% 29.87 in 5.0 mi South 4.6 mph - 0.01 in   Drizzle
8:35 PM 51.3 °F - 50.7 °F 98% 29.88 in 3.0 mi South 4.6 mph - 0.02 in Rain Rain
8:55 PM 51.3 °F - 50.4 °F 97% 29.89 in 4.0 mi SSW 6.9 mph - 0.04 in Rain Heavy Rain
9:15 PM 51.1 °F - 50.0 °F 96% 29.89 in 3.0 mi SSW 9.2 mph - 0.02 in Rain Heavy Rain
9:35 PM 47.5 °F - 45.1 °F 92% 29.91 in 5.0 mi WSW 16.1 mph 23.0 mph 0.03 in Rain Light Rain
9:55 PM 44.2 °F 38.4 °F 43.0 °F 95% 29.93 in 7.0 mi WSW 11.5 mph 19.6 mph 0.06 in Rain Rain
10:15 PM 43.0 °F 37.2 °F 41.7 °F 95% 29.94 in 7.0 mi WSW 10.4 mph 17.3 mph 0.03 in Rain Light Rain
10:35 PM 41.9 °F 35.0 °F 40.1 °F 93% 29.94 in 7.0 mi WSW 12.7 mph 17.3 mph 0.06 in Rain Rain
10:55 PM 41.0 °F 35.8 °F 39.2 °F 93% 29.96 in 5.0 mi WSW 8.1 mph 19.6 mph N/A Rain Rain
11:15 PM 38.3 °F 30.9 °F 36.5 °F 93% 29.95 in 7.0 mi WSW 11.5 mph 20.7 mph 0.02 in Rain Light Rain
11:35 PM 37.4 °F 28.9 °F 35.4 °F 93% 29.96 in 10.0 mi WSW 13.8 mph 19.6 mph 0.03 in Rain Light Rain